1491616800.1,64486,9.75,72870.8,-6.77,-7.61,-7.57,0,*5B
1491616801.32,64487,9.75,72860.8,-6.77,-7.61,-7.53,0,*5E
1491616802.58,64488,9.75,72864.0,-6.77,-7.57,-7.57,0,*50
1491616803.86,64489,9.75,72860.8,-6.75,-7.57,-7.57,0,*53
1491616805.14,64490,9.75,72840.8,-6.75,-7.57,-7.57,0,*5B
1491616806.34,64491,9.75,72844.3,-6.77,-7.53,-7.53,0,*58
1491616807.56,64492,9.75,72856.5,-6.77,-7.57,-7.53,0,*5F
1491616808.78,64493,9.75,72852.3,-6.75,-7.53,-7.53,0,*58
1491616810.04,64494,9.75,72844.8,-6.75,-7.53,-7.43,0,*5E
1491616811.29,64495,9.75,72852.8,-6.77,-7.43,-7.39,0,*51
1491616812.54,64496,9.75,72852.3,-6.75,-7.53,-7.43,0,*5C
1491616813.8,64497,9.75,72864.8,-6.75,-7.57,-7.53,0,*58
1491616815.04,64498,9.75,72862.3,-6.75,-7.43,-7.53,0,*52
1491616816.24,64499,9.75,72850.0,-6.77,-7.53,-7.53,0,*50
1491616817.49,64500,9.75,72840.5,-6.75,-7.43,-7.53,0,*52
1491616818.74,64501,9.75,72840.3,-6.77,-7.43,-7.43,0,*50
1491616820.02,64502,9.75,72846.8,-6.75,-7.43,-7.39,0,*5C
1491616821.26,64503,9.75,72858.3,-6.77,-7.39,-7.39,0,*52
1491616822.53,64504,9.75,72852.3,-6.75,-7.39,-7.43,0,*5A
1491616823.75,64505,9.75,72874.3,-6.77,-7.43,-7.53,0,*55
1491616825.03,64506,9.75,72856.5,-6.75,-7.43,-7.57,0,*50
1491616826.29,64507,9.75,72868.8,-6.75,-7.53,-7.57,0,*50
1491616827.48,64508,9.75,72868.8,-6.77,-7.53,-7.53,0,*59
1491616828.71,64509,9.75,72868.3,-6.77,-7.53,-7.43,0,*59
1491616829.93,64510,9.81,72882.5,-6.77,-7.43,-7.53,0,*51
1491616831.18,64511,9.75,72876.8,-6.77,-7.43,-7.43,0,*51
1491616832.46,64512,9.75,72884.3,-6.75,-7.43,-7.43,0,*50
1491616833.68,64513,9.75,72890.5,-6.75,-7.53,-7.53,0,*51
1491616834.94,64514,9.81,72882.5,-6.77,-7.57,-7.57,0,*54
1491616836.16,64515,9.75,72864.0,-6.77,-7.57,-7.53,0,*51
1491616837.42,64516,9.75,72866.8,-6.77,-7.57,-7.57,0,*56
1491616838.67,64517,9.81,72866.8,-6.75,-7.43,-7.53,0,*54
1491616839.89,64518,9.81,72858.0,-6.75,-7.53,-7.53,0,*5A
1491616841.11,64519,9.75,72858.5,-6.77,-7.53,-7.57,0,*5D
1491616842.33,64520,9.75,72848.0,-6.75,-7.53,-7.53,0,*51
1491616843.53,64521,9.75,72846.8,-6.77,-7.53,-7.53,0,*52
1491616844.72,64522,9.75,72852.5,-6.77,-7.53,-7.53,0,*51
1491616845.91,64523,9.81,72838.5,-6.77,-7.53,-7.53,0,*50
1491616847.14,64524,9.75,72838.8,-6.77,-7.53,-7.43,0,*56
1491616848.39,64525,9.75,72856.3,-6.77,-7.43,-7.39,0,*5B
1491616849.65,64526,9.81,72852.8,-6.77,-7.43,-7.43,0,*55
1491616850.93,64527,9.75,72836.3,-6.75,-7.57,-7.57,0,*56
1491616852.21,64528,9.75,72842.8,-6.75,-7.57,-7.57,0,*59
1491616853.41,64529,9.75,72840.3,-6.77,-7.53,-7.53,0,*5A
1491616854.66,64530,9.75,72838.0,-6.77,-7.43,-7.43,0,*52
1491616855.89,64531,9.75,72854.5,-6.77,-7.53,-7.43,0,*52
1491616857.11,64532,9.75,72850.8,-6.77,-7.53,-7.43,0,*51
1491616858.31,64533,9.75,72836.0,-6.77,-7.53,-7.53,0,*51
1491616859.53,64534,9.75,72848.5,-6.77,-7.57,-7.53,0,*52
1491616860.79,64535,9.75,72840.3,-6.77,-7.57,-7.57,0,*57
1491616862.04,64536,9.75,72850.8,-6.77,-7.57,-7.57,0,*54
1491616863.33,64537,9.75,72848.0,-6.75,-7.57,-7.57,0,*57
1491616864.55,64538,9.75,72858.8,-6.77,-7.53,-7.57,0,*5E
1491616865.77,64539,9.75,72856.3,-6.77,-7.57,-7.53,0,*5F
1491616867.03,64540,9.75,72856.8,-6.75,-7.57,-7.53,0,*53
1491616868.28,64541,9.81,72842.0,-6.75,-7.53,-7.57,0,*52
1491616869.5,64542,9.75,72838.5,-6.77,-7.53,-7.57,0,*53
1491616870.78,64543,9.75,72850.8,-6.75,-7.57,-7.57,0,*54
1491616872.01,64544,9.75,72852.3,-6.77,-7.57,-7.53,0,*55
1491616873.26,64545,9.75,72846.3,-6.75,-7.57,-7.53,0,*56
1491616874.45,64546,9.81,72840.0,-6.77,-7.53,-7.53,0,*53
1491616875.65,64547,9.75,72830.5,-6.77,-7.53,-7.53,0,*52
1491616876.9,64548,9.75,72826.3,-6.75,-7.43,-7.53,0,*5E
1491616878.15,64549,9.75,72830.3,-6.77,-7.43,-7.43,0,*5C
1491616879.39,64550,9.75,72832.0,-6.77,-7.39,-7.39,0,*54
1491616880.67,64551,9.75,72838.5,-6.75,-7.43,-7.39,0,*5A
1491616881.95,64552,9.75,72854.5,-6.75,-7.43,-7.43,0,*54
1491616883.23,64553,9.75,72848.0,-6.75,-7.43,-7.43,0,*55
1491616884.51,64554,9.75,72848.3,-6.75,-7.43,-7.39,0,*5F
1491616885.76,64555,9.75,72854.3,-6.77,-7.39,-7.43,0,*5C
1491616887.04,64556,9.75,72868.8,-6.75,-7.43,-7.39,0,*5D
1491616888.31,64557,9.75,72884.8,-6.75,-7.39,-7.43,0,*5C
1491616889.56,64558,9.81,72896.8,-6.77,-7.39,-7.31,0,*54
1491616890.8,64559,9.75,72864.0,-6.77,-7.39,-7.31,0,*55
1491616892.08,64560,9.75,72860.8,-6.75,-7.43,-7.39,0,*58
1491616893.33,64561,9.81,72848.8,-6.77,-7.43,-7.39,0,*5B
1491616894.6,64562,9.75,72840.8,-6.75,-7.43,-7.39,0,*5A
1491616895.88,64563,9.75,72840.8,-6.75,-7.39,-7.43,0,*5B
1491616897.15,64564,9.75,72844.5,-6.75,-7.39,-7.43,0,*5C
1491616898.41,64565,9.75,72826.3,-6.77,-7.43,-7.43,0,*52
1491616899.69,64566,9.75,72828.0,-6.75,-7.43,-7.43,0,*53
1491616900.97,64567,9.81,72872.3,-6.75,-7.43,-7.39,0,*5F
1491616902.25,64568,9.75,72860.5,-6.75,-7.43,-7.43,0,*5D
1491616903.49,64569,9.75,72860.5,-6.75,-7.39,-7.53,0,*50
1491616904.77,64570,9.75,72854.5,-6.75,-7.43,-7.43,0,*54
1491616906.04,64571,9.75,72866.8,-6.75,-7.39,-7.39,0,*55
1491616907.32,64572,9.81,72858.5,-6.75,-7.43,-7.39,0,*5B
1491616908.6,64573,9.75,72854.0,-6.75,-7.43,-7.39,0,*5A
1491616909.87,64574,9.75,72850.0,-6.75,-7.43,-7.39,0,*5D
1491616911.12,64575,9.75,72846.0,-6.77,-7.43,-7.39,0,*5E
1491616912.4,64576,9.75,72840.3,-6.75,-7.43,-7.43,0,*52
1491616913.68,64577,9.75,72838.8,-6.75,-7.39,-7.43,0,*5E
1491616914.95,64578,9.81,72848.0,-6.75,-7.39,-7.43,0,*51
1491616916.22,64579,9.75,72848.3,-6.75,-7.39,-7.39,0,*5D
1491616917.5,64580,9.75,72854.0,-6.75,-7.39,-7.43,0,*56
1491616918.78,64581,9.81,72856.5,-6.75,-7.43,-7.43,0,*5A
1491616920.05,64582,9.75,72864.0,-6.75,-7.39,-7.43,0,*54
1491616921.33,64583,9.81,72860.3,-6.75,-7.39,-7.39,0,*58
1491616922.58,64584,9.75,72852.8,-6.77,-7.43,-7.39,0,*50
1491616923.85,64585,9.75,72858.3,-6.75,-7.43,-7.39,0,*53
1491616925.13,64586,9.75,72850.0,-6.75,-7.43,-7.39,0,*50
1491616926.4,64587,9.75,72850.0,-6.75,-7.39,-7.39,0,*5C
1491616927.68,64588,9.81,72854.0,-6.75,-7.39,-7.43,0,*5E
1491616928.95,64589,9.75,72848.5,-6.75,-7.43,-7.39,0,*5F
1491616930.22,64590,9.75,72850.5,-6.75,-7.39,-7.31,0,*52
1491616931.49,64591,9.81,72856.8,-6.75,-7.39,-7.39,0,*5B
1491616932.77,64592,9.75,72862.8,-6.75,-7.39,-7.43,0,*55
1491616934.04,64593,9.75,72868.8,-6.75,-7.39,-7.39,0,*59
1491616935.31,64594,9.75,72862.3,-6.75,-7.39,-7.39,0,*5E
1491616936.56,64595,9.75,72856.5,-6.73,-7.39,-7.35,0,*55
1491616937.81,64596,9.75,72854.0,-6.73,-7.35,-7.35,0,*5A
1491616939.06,64597,9.75,72860.5,-6.73,-7.35,-7.35,0,*5B
1491616940.31,64598,9.81,72868.5,-6.73,-7.39,-7.35,0,*58
1491616941.55,64599,9.81,72836.0,-6.73,-7.39,-7.39,0,*55
1491616942.84,64600,9.75,72816.8,-6.75,-7.43,-7.43,0,*50
1491616944.12,64601,9.75,72846.5,-6.75,-7.43,-7.43,0,*51
1491616945.36,64602,9.81,72856.5,-6.73,-7.39,-7.39,0,*54
1491616946.63,64603,9.75,72854.8,-6.75,-7.39,-7.39,0,*53
1491616947.91,64604,9.75,72848.5,-6.75,-7.43,-7.39,0,*59
1491616949.18,64605,9.75,72842.0,-6.75,-7.39,-7.39,0,*55
1491616950.46,64606,9.81,72852.0,-6.75,-7.43,-7.39,0,*5B
1491616951.71,64607,9.75,72870.0,-6.73,-7.39,-7.35,0,*5D
1491616952.96,64608,9.75,72860.3,-6.69,-7.35,-7.35,0,*55
1491616954.2,64609,9.75,72870.0,-6.73,-7.39,-7.39,0,*5F
1491616955.45,64610,9.75,72868.5,-6.73,-7.39,-7.39,0,*57
1491616956.67,64611,9.75,72860.3,-6.73,-7.49,-7.35,0,*5D
1491616957.89,64612,9.75,72864.3,-6.73,-7.39,-7.49,0,*52
1491616959.09,64613,9.75,72856.3,-6.73,-7.53,-7.49,0,*5F
1491616960.34,64614,9.75,72862.0,-6.73,-7.39,-7.39,0,*53
1491616961.58,64615,9.75,72862.8,-6.69,-7.39,-7.39,0,*59
1491616962.83,64616,9.75,72866.0,-6.73,-7.35,-7.35,0,*51
1491616964.08,64617,9.75,72862.3,-6.69,-7.35,-7.35,0,*5B
1491616965.33,64618,9.75,72862.5,-6.73,-7.39,-7.39,0,*5F
1491616966.58,64619,9.75,72864.3,-6.73,-7.35,-7.35,0,*5E
1491616967.83,64620,9.81,72876.0,-6.73,-7.39,-7.35,0,*58
1491616969.1,64621,9.75,72878.0,-6.75,-7.39,-7.43,0,*5E
1491616970.35,64622,9.75,72886.0,-6.73,-7.39,-7.39,0,*56
1491616971.6,64623,9.75,72886.8,-6.73,-7.35,-7.39,0,*5B
1491616972.85,64624,9.75,72892.8,-6.73,-7.39,-7.39,0,*50
1491616974.09,64625,9.75,72900.3,-6.73,-7.39,-7.39,0,*51
1491616975.32,64626,9.75,72906.8,-6.73,-7.49,-7.39,0,*55
1491616976.57,64627,9.75,72910.0,-6.73,-7.39,-7.35,0,*5F
1491616977.81,64628,9.75,72902.3,-6.69,-7.39,-7.39,0,*57
1491616979.03,64629,9.75,72900.5,-6.69,-7.49,-7.39,0,*51
1491616980.28,64630,9.81,72892.3,-6.73,-7.39,-7.39,0,*55
1491616981.5,64631,9.75,72882.0,-6.69,-7.49,-7.39,0,*58
1491616982.74,64632,9.75,72888.3,-6.73,-7.39,-7.39,0,*57
1491616983.99,64633,9.75,72874.8,-6.73,-7.39,-7.35,0,*5A
1491616985.24,64634,9.75,72880.5,-6.73,-7.39,-7.35,0,*5D
1491616986.48,64635,9.75,72876.8,-6.73,-7.39,-7.39,0,*50
1491616987.72,64636,9.75,72884.0,-6.69,-7.39,-7.35,0,*54
1491616988.97,64637,9.75,72880.5,-6.73,-7.39,-7.35,0,*5E
1491616990.22,64638,9.75,72878.3,-6.73,-7.39,-7.39,0,*5D
1491616991.47,64639,9.75,72862.5,-6.73,-7.35,-7.39,0,*50
1491616992.72,64640,9.75,72876.8,-6.69,-7.35,-7.39,0,*55
1491616993.96,64641,9.75,72876.0,-6.69,-7.39,-7.39,0,*58
1491616995.24,64642,9.75,72876.3,-6.75,-7.39,-7.43,0,*5B
1491616996.49,64643,9.75,72872.0,-6.73,-7.35,-7.39,0,*5D
1491616997.74,64644,9.75,72870.0,-6.73,-7.35,-7.39,0,*5A
1491616998.99,64645,9.75,72886.3,-6.73,-7.35,-7.39,0,*5B
1491617000.24,64646,9.75,72894.5,-6.69,-7.35,-7.39,0,*53
1491617001.49,64647,9.75,72890.8,-6.73,-7.39,-7.35,0,*59
1491617002.73,64648,9.75,72880.5,-6.69,-7.39,-7.39,0,*51
1491617003.95,64649,9.81,72896.0,-6.73,-7.39,-7.49,0,*5C
1491617005.17,64650,9.75,72870.3,-6.73,-7.39,-7.49,0,*54
1491617006.37,64651,9.75,72866.3,-6.73,-7.49,-7.49,0,*52
1491617007.59,64652,9.75,72876.8,-6.73,-7.39,-7.49,0,*56
1491617008.81,64653,9.75,72864.0,-6.73,-7.39,-7.49,0,*57
1491617010.06,64654,9.75,72854.3,-6.73,-7.35,-7.39,0,*5B
1491617011.31,64655,9.75,72856.8,-6.69,-7.35,-7.35,0,*5D
1491617012.56,64656,9.75,72872.5,-6.73,-7.35,-7.39,0,*59
1491617013.82,64657,9.75,72886.3,-6.73,-7.35,-7.35,0,*54
1491617015.05,64658,9.75,72888.0,-6.73,-7.23,-7.35,0,*5C
1491617016.29,64659,9.81,72870.8,-6.73,-7.39,-7.35,0,*56
1491617017.54,64660,9.75,72864.3,-6.73,-7.39,-7.39,0,*50
1491617018.76,64661,9.75,72864.3,-6.69,-7.49,-7.39,0,*5D
1491617020.01,64662,9.75,72860.5,-6.73,-7.39,-7.35,0,*5E
1491617021.25,64663,9.75,72854.0,-6.69,-7.39,-7.39,0,*58
1491617022.45,64664,9.75,72854.8,-6.73,-7.53,-7.49,0,*5F
1491617023.65,64665,9.75,72862.3,-6.73,-7.49,-7.49,0,*55
1491617024.85,64666,9.75,72858.0,-6.73,-7.49,-7.49,0,*56
1491617026.04,64667,9.81,72854.0,-6.73,-7.49,-7.49,0,*57
1491617027.24,64668,9.75,72836.3,-6.73,-7.49,-7.53,0,*53
1491617028.43,64669,9.81,72832.5,-6.73,-7.53,-7.53,0,*59
1491617029.63,64670,9.75,72824.0,-6.73,-7.49,-7.49,0,*51
1491617030.83,64671,9.75,72854.8,-6.73,-7.53,-7.49,0,*5B
1491617032.03,64672,9.75,72858.0,-6.73,-7.49,-7.49,0,*53
1491617033.22,64673,9.75,72842.8,-6.73,-7.53,-7.53,0,*52
1491617034.43,64674,9.75,72828.8,-6.73,-7.53,-7.49,0,*5E
1491617035.63,64675,9.75,72818.8,-6.73,-7.53,-7.49,0,*5F
1491617036.82,64676,9.75,72840.8,-6.73,-7.49,-7.49,0,*57
1491617038.04,64677,9.81,72832.0,-6.73,-7.39,-7.49,0,*51
1491617039.26,64678,9.81,72844.5,-6.69,-7.39,-7.49,0,*55
1491617040.48,64679,9.81,72856.0,-6.73,-7.49,-7.39,0,*5F
1491617041.74,64680,9.81,72874.8,-6.75,-7.53,-7.43,0,*59
1491617042.98,64681,9.81,72860.5,-6.73,-7.39,-7.39,0,*5F
1491617044.21,64682,9.81,72862.0,-6.73,-7.39,-7.49,0,*5B
1491617045.4,64683,9.75,72856.3,-6.73,-7.49,-7.49,0,*5D
1491617046.6,64684,9.75,72862.5,-6.73,-7.49,-7.49,0,*5A
1491617047.8,64685,9.81,72860.0,-6.73,-7.49,-7.49,0,*5B
1491617049.04,64686,9.81,72866.5,-6.73,-7.39,-7.35,0,*54
1491617050.3,64687,9.81,72870.5,-6.73,-7.35,-7.39,0,*55
1491617051.54,64688,9.75,72864.0,-6.69,-7.39,-7.39,0,*5D
1491617052.79,64689,9.75,72876.0,-6.73,-7.39,-7.35,0,*5B
1491617054.03,64690,9.81,72882.5,-6.69,-7.39,-7.35,0,*58
1491617055.28,64691,9.75,72902.5,-6.73,-7.39,-7.35,0,*52
1491617056.53,64692,9.75,72910.5,-6.73,-7.35,-7.35,0,*5D
1491617057.78,64693,9.75,72918.3,-6.73,-7.39,-7.39,0,*5C
1491617058.97,64694,9.81,72908.3,-6.69,-7.53,-7.53,0,*50
1491617060.19,64695,9.81,72902.8,-6.69,-7.57,-7.53,0,*55
1491617061.39,64696,9.81,72884.0,-6.73,-7.49,-7.49,0,*59
1491617062.59,64697,9.75,72884.0,-6.73,-7.49,-7.49,0,*58
1491617063.79,64698,9.81,72882.3,-6.73,-7.49,-7.49,0,*57
1491617064.99,64699,9.81,72886.8,-6.73,-7.53,-7.49,0,*5D
1491617066.18,64700,9.75,72880.5,-6.73,-7.53,-7.53,0,*57
1491617067.38,64701,9.81,72878.3,-6.73,-7.53,-7.53,0,*56
1491617068.58,64702,9.81,72890.0,-6.73,-7.53,-7.53,0,*55
1491617069.77,64703,9.81,72884.8,-6.73,-7.53,-7.53,0,*54
1491617070.97,64704,9.81,72876.0,-6.73,-7.53,-7.53,0,*53
1491617072.2,64705,9.81,72872.3,-6.73,-7.53,-7.57,0,*56
1491617073.43,64706,9.75,72864.8,-6.73,-7.53,-7.57,0,*55
1491617074.71,64707,9.81,72862.3,-6.75,-7.61,-7.61,0,*56
1491617075.99,64708,9.81,72856.8,-6.75,-7.61,-7.61,0,*59
1491617077.19,64709,9.81,72870.3,-6.73,-7.53,-7.53,0,*5E
1491617078.39,64710,9.81,72870.0,-6.73,-7.53,-7.49,0,*5D
1491617079.58,64711,9.81,72866.5,-6.73,-7.53,-7.53,0,*57
1491617080.78,64712,9.81,72872.3,-6.73,-7.53,-7.53,0,*54
1491617081.98,64713,9.81,72886.3,-6.73,-7.49,-7.49,0,*55
1491617083.2,64714,9.81,72884.0,-6.75,-7.53,-7.53,0,*54
1491617084.48,64715,9.75,72878.8,-6.75,-7.57,-7.57,0,*55
1491617085.7,64716,9.81,72878.3,-6.75,-7.53,-7.53,0,*56
1491617086.92,64717,9.81,72890.3,-6.75,-7.53,-7.53,0,*57
1491617088.12,64718,9.81,72892.5,-6.73,-7.53,-7.53,0,*5E
1491617089.32,64719,9.81,72880.0,-6.73,-7.53,-7.49,0,*54
1491617090.55,64720,9.75,72860.0,-6.73,-7.49,-7.35,0,*5E
1491617091.77,64721,9.81,72848.8,-6.69,-7.49,-7.39,0,*58
1491617092.99,64722,9.81,72844.5,-6.73,-7.49,-7.39,0,*50
1491617094.24,64723,9.81,72848.8,-6.75,-7.53,-7.43,0,*51
1491617095.46,64724,9.75,72844.8,-6.73,-7.39,-7.49,0,*56
1491617096.72,64725,9.81,72844.0,-6.73,-7.35,-7.35,0,*50
1491617097.96,64726,9.75,72838.5,-6.73,-7.39,-7.39,0,*53
1491617099.25,64727,9.81,72832.5,-6.75,-7.43,-7.43,0,*54
1491617100.5,64728,9.81,72818.0,-6.73,-7.35,-7.39,0,*51
1491617101.74,64729,9.81,72824.0,-6.73,-7.39,-7.35,0,*50
1491617102.99,64730,9.75,72822.3,-6.73,-7.39,-7.35,0,*58
1491617104.24,64731,9.81,72818.8,-6.73,-7.39,-7.35,0,*59
1491617105.49,64732,9.75,72826.5,-6.73,-7.35,-7.39,0,*5A
1491617106.74,64733,9.81,72852.5,-6.73,-7.35,-7.39,0,*5B
1491617107.99,64734,9.75,72876.8,-6.73,-7.39,-7.39,0,*50
1491617109.23,64735,9.81,72860.3,-6.73,-7.39,-7.39,0,*51
1491617110.48,64736,9.81,72868.5,-6.73,-7.39,-7.35,0,*5E
1491617111.73,64737,9.75,72866.5,-6.73,-7.35,-7.35,0,*53
1491617112.99,64738,9.81,72856.8,-6.73,-7.35,-7.35,0,*5C
1491617114.24,64739,9.81,72848.5,-6.73,-7.27,-7.35,0,*5E
1491617115.48,64740,9.75,72842.3,-6.73,-7.39,-7.39,0,*53
1491617116.74,64741,9.75,72906.0,-6.73,-7.35,-7.35,0,*52
1491617117.99,64742,9.81,72884.8,-6.73,-7.35,-7.39,0,*5D
1491617119.23,64743,9.81,72856.3,-6.73,-7.39,-7.39,0,*50
1491617120.48,64744,9.81,72894.3,-6.73,-7.39,-7.39,0,*57
1491617121.73,64745,9.81,72914.8,-6.73,-7.35,-7.39,0,*5A
1491617122.98,64746,9.81,72906.3,-6.73,-7.39,-7.39,0,*55
1491617124.2,64747,9.81,72900.8,-6.73,-7.39,-7.53,0,*58
1491617125.44,64748,9.81,72874.0,-6.73,-7.39,-7.39,0,*5B
1491617126.66,64749,9.81,72822.3,-6.69,-7.39,-7.49,0,*56
1491617127.88,64750,9.81,72840.3,-6.69,-7.49,-7.39,0,*5E
1491617129.08,64751,9.75,72884.3,-6.73,-7.49,-7.49,0,*53
1491617130.27,64752,9.81,72894.3,-6.69,-7.49,-7.49,0,*5B
1491617131.49,64753,9.75,72908.0,-6.73,-7.39,-7.49,0,*56
1491617132.74,64754,9.81,72878.5,-6.69,-7.39,-7.39,0,*5D
1491617133.98,64755,9.81,72878.5,-6.73,-7.39,-7.35,0,*5B
1491617135.24,64756,9.75,72866.0,-6.73,-7.35,-7.35,0,*54
1491617136.49,64757,9.81,72866.5,-6.73,-7.35,-7.39,0,*59
1491617137.74,64758,9.81,72846.0,-6.69,-7.35,-7.35,0,*51
1491617138.99,64759,9.81,72852.8,-6.73,-7.35,-7.35,0,*5B
1491617140.24,64760,9.75,72880.0,-6.73,-7.39,-7.35,0,*5D
1491617141.48,64761,9.81,72890.0,-6.73,-7.39,-7.39,0,*50
1491617142.73,64762,9.81,72880.5,-6.69,-7.39,-7.35,0,*54
1491617143.98,64763,9.81,72878.0,-6.69,-7.35,-7.35,0,*59
1491617145.23,64764,9.75,72874.3,-6.69,-7.35,-7.39,0,*52
1491617146.47,64765,9.81,72874.5,-6.69,-7.35,-7.39,0,*53
1491617147.72,64766,9.81,72874.0,-6.73,-7.39,-7.39,0,*57
1491617148.96,64767,9.81,72874.0,-6.69,-7.39,-7.39,0,*5D
1491617150.16,64768,9.81,72882.3,-6.73,-7.49,-7.49,0,*59
1491617151.38,64769,9.81,72884.8,-6.73,-7.39,-7.49,0,*5F
1491617152.58,64770,9.81,72888.8,-6.73,-7.53,-7.53,0,*50
1491617153.77,64771,9.81,72870.0,-6.73,-7.49,-7.53,0,*5A
1491617155.03,64772,9.81,72858.0,-6.73,-7.65,-7.65,0,*52
1491617156.28,64773,9.81,72840.8,-6.73,-7.57,-7.65,0,*52
1491617157.54,64774,9.81,72832.5,-6.73,-7.57,-7.57,0,*54
1491617158.8,64775,9.81,72758.8,-6.73,-7.57,-7.57,0,*55
1491617160.06,64776,9.81,72766.3,-6.73,-7.57,-7.57,0,*56
1491617161.32,64777,9.81,72756.8,-6.73,-7.57,-7.57,0,*57
1491617162.52,64778,9.81,72766.5,-6.73,-7.53,-7.53,0,*58
1491617163.72,64779,9.81,72760.0,-6.73,-7.53,-7.49,0,*52
1491617164.91,64780,9.81,72822.8,-6.73,-7.49,-7.49,0,*5F
1491617166.13,64781,9.81,72848.0,-6.73,-7.39,-7.49,0,*59
1491617167.38,64782,9.81,72858.0,-6.73,-7.39,-7.39,0,*5D
1491617168.61,64783,9.81,72864.3,-6.73,-7.53,-7.39,0,*50
1491617169.85,64784,9.81,72872.3,-6.73,-7.39,-7.39,0,*5B
1491617171.05,64785,9.81,72884.3,-6.73,-7.53,-7.49,0,*51
1491617172.27,64786,9.81,72874.3,-6.73,-7.39,-7.49,0,*5E
1491617173.52,64787,9.81,72870.3,-6.69,-7.39,-7.39,0,*53
1491617174.71,64788,9.81,72892.5,-6.73,-7.49,-7.49,0,*57
1491617175.94,64789,9.81,72882.8,-6.73,-7.49,-7.39,0,*51
1491617177.18,64790,9.81,72886.5,-6.73,-7.39,-7.39,0,*5E
1491617178.43,64791,9.81,72894.5,-6.73,-7.39,-7.39,0,*5F
1491617179.68,64792,9.81,72902.8,-6.73,-7.39,-7.39,0,*5C
1491617180.93,64793,9.81,72908.8,-6.73,-7.35,-7.35,0,*5D
1491617182.17,64794,9.81,72914.8,-6.73,-7.39,-7.35,0,*56
1491617183.37,64795,9.81,72892.8,-6.73,-7.49,-7.49,0,*5B
1491617184.57,64796,9.81,72906.0,-6.73,-7.49,-7.53,0,*53
1491617185.77,64797,9.81,72910.0,-6.73,-7.53,-7.49,0,*52
1491617186.97,64798,9.81,72902.8,-6.73,-7.53,-7.49,0,*5D
1491617188.16,64799,9.81,72906.8,-6.73,-7.53,-7.53,0,*57
1491617189.36,64800,9.81,72910.3,-6.73,-7.49,-7.53,0,*53
1491617190.56,64801,9.81,72880.3,-6.73,-7.53,-7.49,0,*52
1491617191.75,64802,9.81,72890.3,-6.69,-7.53,-7.53,0,*51
1491617192.98,64803,9.81,72876.8,-6.73,-7.57,-7.53,0,*5F
1491617194.18,64804,9.81,72876.5,-6.73,-7.49,-7.49,0,*5C
1491617195.37,64805,9.81,72878.5,-6.73,-7.49,-7.49,0,*5D
1491617196.57,64806,9.81,72880.8,-6.73,-7.49,-7.53,0,*55
1491617197.79,64807,9.81,72890.8,-6.73,-7.49,-7.39,0,*58
1491617199.02,64808,9.81,72880.3,-6.73,-7.49,-7.39,0,*57
1491617200.26,64809,9.81,72880.0,-6.75,-7.43,-7.53,0,*56
1491617201.48,64810,9.75,72876.0,-6.75,-7.53,-7.53,0,*5F
1491617202.73,64811,9.81,72880.0,-6.73,-7.39,-7.35,0,*54
1491617203.98,64812,9.81,72876.0,-6.73,-7.39,-7.35,0,*57
1491617205.23,64813,9.81,72870.0,-6.73,-7.39,-7.35,0,*56
1491617206.47,64814,9.81,72888.5,-6.73,-7.39,-7.39,0,*5D
1491617207.72,64815,9.81,72886.3,-6.73,-7.39,-7.35,0,*50
1491617208.97,64816,9.81,72892.8,-6.73,-7.35,-7.39,0,*53
1491617210.22,64817,9.81,72886.3,-6.73,-7.35,-7.35,0,*5E
1491617211.48,64818,9.81,72888.3,-6.73,-7.35,-7.35,0,*51
1491617212.73,64819,9.81,72878.5,-6.69,-7.35,-7.39,0,*57
1491617213.97,64820,9.81,72894.5,-6.69,-7.35,-7.35,0,*51
1491617215.23,64821,9.81,72906.8,-6.73,-7.35,-7.35,0,*5B
1491617216.48,64822,9.81,72894.0,-6.73,-7.35,-7.35,0,*58
1491617217.73,64823,9.81,72888.3,-6.73,-7.35,-7.35,0,*59
1491617218.96,64824,9.81,72890.0,-6.73,-7.35,-7.23,0,*59
1491617220.22,64825,9.75,72888.5,-6.73,-7.35,-7.35,0,*5F
1491617221.46,64826,9.81,72882.3,-6.69,-7.39,-7.39,0,*57
1491617222.7,64827,9.81,72890.8,-6.69,-7.39,-7.39,0,*56
1491617223.95,64828,9.75,72906.3,-6.69,-7.35,-7.35,0,*59
1491617225.21,64829,9.81,72894.8,-6.73,-7.35,-7.35,0,*53
1491617226.45,64830,9.81,72916.5,-6.69,-7.39,-7.35,0,*5C
1491617227.69,64831,9.81,72910.3,-6.69,-7.39,-7.35,0,*5D
1491617228.94,64832,9.81,72908.8,-6.69,-7.35,-7.35,0,*52
1491617230.19,64833,9.81,72906.0,-6.69,-7.35,-7.35,0,*53
1491617231.44,64834,9.81,72898.3,-6.73,-7.27,-7.27,0,*5F
1491617232.69,64835,9.75,72876.8,-6.69,-7.39,-7.35,0,*59
1491617233.91,64836,9.81,72874.3,-6.73,-7.49,-7.39,0,*5A
1491617235.15,64837,9.81,72876.3,-6.69,-7.39,-7.35,0,*5B
1491617236.4,64838,9.81,72910.8,-6.69,-7.35,-7.39,0,*54
1491617237.62,64839,9.81,72924.0,-6.69,-7.49,-7.35,0,*52
1491617238.87,64840,9.81,72916.0,-6.69,-7.39,-7.35,0,*5B
1491617240.11,64841,9.81,72878.5,-6.73,-7.39,-7.39,0,*5D
1491617241.36,64842,9.75,72868.3,-6.69,-7.35,-7.39,0,*59
1491617242.61,64843,9.81,72896.3,-6.69,-7.35,-7.35,0,*54
1491617243.86,64844,9.81,72896.0,-6.69,-7.35,-7.35,0,*53
1491617245.12,64845,9.81,72906.3,-6.73,-7.35,-7.27,0,*5A
1491617246.37,64846,9.81,72906.0,-6.73,-7.35,-7.35,0,*5A
1491617247.62,64847,9.75,72900.5,-6.69,-7.35,-7.35,0,*50
1491617248.87,64848,9.81,72930.0,-6.73,-7.35,-7.39,0,*58
1491617250.09,64849,9.81,72892.5,-6.69,-7.39,-7.49,0,*59
1491617251.34,64850,9.81,72898.0,-6.69,-7.35,-7.35,0,*56
1491617252.59,64851,9.81,72886.8,-6.69,-7.35,-7.35,0,*57
1491617253.84,64852,9.81,72888.5,-6.69,-7.35,-7.35,0,*54
1491617255.08,64853,9.81,72894.8,-6.69,-7.39,-7.35,0,*59
1491617256.32,64854,9.81,72888.5,-6.69,-7.39,-7.35,0,*5E
1491617257.57,64855,9.81,72892.8,-6.73,-7.39,-7.35,0,*54
1491617258.82,64856,9.81,72902.5,-6.69,-7.35,-7.39,0,*5C
1491617260.07,64857,9.75,72904.3,-6.69,-7.35,-7.35,0,*51
1491617261.32,64858,9.81,72910.3,-6.73,-7.39,-7.35,0,*59
1491617262.56,64859,9.81,72916.3,-6.69,-7.35,-7.39,0,*53
1491617263.81,64860,9.81,72914.3,-6.69,-7.39,-7.35,0,*59
1491617265.05,64861,9.81,72918.3,-6.69,-7.39,-7.35,0,*58
1491617266.3,64862,9.81,72908.8,-6.69,-7.39,-7.39,0,*57
1491617267.49,64863,9.81,72890.0,-6.69,-7.49,-7.49,0,*56
1491617268.68,64864,9.81,72884.5,-6.69,-7.49,-7.49,0,*51
1491617269.88,64865,9.81,72882.0,-6.69,-7.49,-7.49,0,*50
1491617271.08,64866,9.81,72876.8,-6.73,-7.49,-7.49,0,*58
1491617272.3,64867,9.75,72870.0,-6.69,-7.49,-7.35,0,*59
1491617273.51,64868,9.75,72882.5,-6.69,-7.39,-7.49,0,*5A
1491617274.76,64869,9.81,72904.8,-6.73,-7.39,-7.35,0,*5B
1491617276.0,64870,9.81,72904.0,-6.69,-7.39,-7.39,0,*54
1491617277.25,64871,9.75,72906.3,-6.69,-7.35,-7.39,0,*59
1491617278.5,64872,9.75,72906.3,-6.69,-7.39,-7.35,0,*5A
1491617279.74,64873,9.81,72896.3,-6.69,-7.39,-7.27,0,*58
1491617280.99,64874,9.81,72876.5,-6.69,-7.27,-7.35,0,*53
1491617282.23,64875,9.81,72898.8,-6.69,-7.39,-7.39,0,*51
1491617283.48,64876,9.81,72920.3,-6.69,-7.35,-7.35,0,*52
1491617284.73,64877,9.81,72924.5,-6.73,-7.35,-7.39,0,*54
1491617285.95,64878,9.81,72876.3,-6.69,-7.39,-7.53,0,*50
1491617287.19,64879,9.81,72884.5,-6.69,-7.39,-7.39,0,*5D
1491617288.43,64880,9.81,72902.3,-6.69,-7.39,-7.39,0,*5B
1491617289.68,64881,9.81,72916.3,-6.69,-7.35,-7.39,0,*56
1491617290.93,64882,9.75,72890.5,-6.73,-7.39,-7.39,0,*52
1491617292.15,64883,9.81,72896.8,-6.69,-7.49,-7.39,0,*5F
1491617293.39,64884,9.81,72894.3,-6.69,-7.39,-7.39,0,*5F
1491617294.63,64885,9.81,72898.8,-6.69,-7.39,-7.39,0,*5E
1491617295.88,64886,9.75,72886.3,-6.69,-7.39,-7.39,0,*5D
1491617297.1,64887,9.81,72890.8,-6.73,-7.49,-7.35,0,*5C
1491617298.32,64888,9.81,72882.3,-6.69,-7.49,-7.39,0,*54
1491617299.51,64889,9.81,72874.3,-6.69,-7.49,-7.53,0,*59
1491617300.71,64890,9.81,72872.3,-6.69,-7.53,-7.49,0,*51
1491617301.91,64891,9.81,72874.0,-6.69,-7.49,-7.49,0,*5B
1491617303.12,64892,9.81,72870.0,-6.69,-7.39,-7.49,0,*5F
1491617304.37,64893,9.81,72868.8,-6.69,-7.35,-7.39,0,*55
1491617305.57,64894,9.75,72880.3,-6.69,-7.49,-7.49,0,*5E
1491617306.81,64895,9.81,72868.5,-6.73,-7.39,-7.39,0,*54
1491617308.03,64896,9.75,72894.3,-6.73,-7.39,-7.53,0,*5B
1491617309.22,64897,9.75,72886.8,-6.69,-7.49,-7.49,0,*5D
1491617310.42,64898,9.81,72882.8,-6.69,-7.53,-7.53,0,*52
1491617311.61,64899,9.81,72872.8,-6.69,-7.53,-7.53,0,*53
1491617312.84,64900,9.75,72860.3,-6.69,-7.57,-7.53,0,*56
1491617314.06,64901,9.81,72874.8,-6.69,-7.65,-7.53,0,*56
1491617315.28,64902,9.75,72854.3,-6.69,-7.57,-7.53,0,*54
1491617316.48,64903,9.75,72830.8,-6.73,-7.53,-7.53,0,*5A
1491617317.68,64904,9.81,72894.0,-6.73,-7.49,-7.49,0,*5D
1491617318.87,64905,9.75,72858.0,-6.73,-7.53,-7.53,0,*5C
1491617320.07,64906,9.81,72854.3,-6.69,-7.53,-7.53,0,*54